User: anonymous   Login
Location: Unspecified
(0.0000°N, 0.0000°E)
Time: 20:47:17
(UTC+00:00)
Language:

COSMOS 2496 - Orbit

View from above orbital plane
View from above orbital plane
View from above satellite
View from above satellite

Ground track
Ground track

The orbit data is extracted from the following two-line orbital elements,

1 39761U 14028A   23083.76989389  .00000036  00000-0  18497-3 0  9997
2 39761  82.4452 128.1328 0020785 129.8109 230.4803 12.42873106400941
Epoch (UTC): 24 March 2023 18:28:38
Eccentricity: 0.0020785
inclination: 82.4452°
perigee height: 1478 km
apogee height: 1511 km
right ascension of ascending node: 128.1328°
argument of perigee: 129.8109°
revolutions per day: 12.42873106
mean anomaly at epoch: 230.4803°
orbit number at epoch: 40094

The dashed part of the orbit path shows where the satellite is in the earth's shadow,  

DLR